Погода в Смоленске

Погода в Смоленске : погода сейчас, прогноз погоды и архив. Всё, что Вы хотите узнать о погоде в Смоленске!

Хотите узнать прогноз погоды в Смоленске? Тогда Вам сюда: Погода в Смоленске

Поиск расширенной информации на нашем сайте:

Другие новости

Новости СМИ2

Главная страница сайта

Новости сайта

03.07.2017

Напоминаем, что на нашем специализированном сайте Метеоцентр.Азия вы можете получить высокодетализированные автоматические прогнозы погоды по пунктам России, СНГ и мира в авиационном формате (включающие направление и скорость ветра, видимость, явления погоды, количество и форму облачности, нижнюю и верхнюю границу облачности).

Рекомендуем: белый кот

Погода в Смоленске - сегодня

Время (UTC), дата Ветер
(°,м/с) 
Видим.   Явления Облачность Т
(°С)
Тd
(°С)
f(%) Тe
(°С)
Pmin
(гПа)
dP
(гПа)
Po
(мм)
O2
(г/м3)
Тmin Tmax R s Состояние
почвы
00 16.04.18 тихо ()   10 км    8/0 верхняя 
[Ci sp]
+7 +6.3 95 +7  1021.1  -0.2  744  291           
03 16.04.18 тихо ()   4000 м  туман поземный  ясно 
+4.5 +4.1 97 +5  1020.9  -0.5  743  294  +4.5         
09 16.04.18 190 (Ю) 10 км    9/0 верхняя 
[Ci fib]
+19 +6.5 44 +20  1018.8  -0.9  743  279           
12 16.04.18 190 (Ю) 10 км    10/0 средняя 
[Ac As]
+20.7 +3.9 33 +21  1017.9  -0.8  743  277           
15 16.04.18 200 (Ю) 10 км    10/0 средняя 
[Ac As]
+19.8 +3.4 34 +21  1016.5  -1.4  741  278           
00 17.04.18 тихо ()   10 км    10/0 средняя 
[Ac und]
+11.5 +6.4 71 +12  1016.4  -0.4  741  285           
03 17.04.18 тихо ()   10 км    10/0 средняя 
[Ac und]
+10.2 +6.3 77 +10  1015.9  -0.6  740  286  +10.2         
06 17.04.18 170 (Ю) 4000 м  мгла  10/5 600 м средняя 
[Sc|Ac trans]
+14.4 +7.8 65 +15  1015.5  0.1  740  282  +10.1        влажная 
09 17.04.18 180 (Ю) 10 км    9/6 600 м средняя 
[Sc|Ac trans]
+18.4 +8.2 51 +19  1015.1  0.1  740  278           
12 17.04.18 200 (Ю) 10 км    10/6 300 м кучево-дожд., средняя 
[Cb cap|Ac und]
+18.6 +6.2 44 +20  1014.3  -0.7  740  278           
21 17.04.18 270 (З) 10 км  {ливн. осадки}  10/10 300 м 
[Sc diur, vesp]
+13.2 +9.6 79 +15  1012.8  -0.4  738  282           
03 18.04.18 300 (СЗ) 2{11}  10 км  {ливн. осадки}  8/4 600 м кучево-дожд., средняя 
[Cb cap|Ac trans]
+6.7 +3.9 82 +7  1015.5  740  290  +6.7       
06 18.04.18 290 (З) 10 км  {ливн. осадки}  9/3 600 м верхняя 
[Sc diur, vesp|Ci fib]
+7.9 +3.2 72 +7  1015.9  0.6  740  289  +6.1    0.3    влажная 
09 18.04.18 280 (З) 3{10}  10 км    10/10 300 м кучево-дожд. 
[Cb cap]
+8 +4.4 78 +7  1015.8  0.1  740  289           
18 18.04.18 300 (СЗ) 4{10}  4000 м  слаб. дождь{ливн. осадки}  10/10 300 м 
[Ns]
+7 +5.5 90 +6  1014.6  -0.6  739  289    +10.1     
21 18.04.18 320 (СЗ) 4000 м  слаб. дождь  10/10 300 м 
[Frnb|Ns]
+6.7 +5.7 93 +5  1013.2  -1.4  738  289           
03 19.04.18 320 (СЗ) 5-10{12}  4000 м  слаб. дождь  10/10 200 м 
[Frnb|Ns]
+5.9 +4.9 93 +4  1011.6  -0.5  737  290  +5.9       
06 19.04.18 320 (СЗ) 3{10}  4000 м  слаб. дождь  10/10 200 м 
[Frnb|Ns]
+6.1 +5.2 94 +5  1011.8  0.2  737  290  +5.9      мокрая 
21 19.04.18 320 (СЗ) 10 км    9/9 300 м 
[Sc]
+6.7 +3 77 +7  1017.2  0.8  741  291           
00 20.04.18 330 (СЗ) 10 км    10/10 300 м 
[Sc]
+6 +4 87 +5  1018.2  0.8  742  292           
03 20.04.18 330 (СЗ) 10 км    5/0 средняя 
[Ac As]
+5.1 +3.2 88 +4  1019.3  742  293  +5.1         
09 20.04.18 340 (С) 20000 м    3/1 600 м верхняя 
[Cu hum|Ci fib]
+14.2 +0.1 38 +15  1019.7  0.1  743  285           
12 20.04.18 310 (СЗ) 20000 м    8/8 600 м 
[Cu hum]
+16.2 -0.6 32 +17  1018.4  -1  743  282           
15 20.04.18 300 (СЗ) 20000 м    6/0 верхняя 
[Ci fib]
+16.1 -1.1 31 +17  1016.7  -1.6  741  282           
21 20.04.18 270 (З) 10 км    ясно 
+9 +1.7 60 +10  1014.5  -1.9  739  288           
Время (UTC), дата Ветер
(°,м/с) 
Видим.   Явления Облачность Т
(°С)
Тd
(°С)
f(%) Тe
(°С)
Pmin
(гПа)
dP
(гПа)
Po
(мм)
O2
(г/м3)
Тmin Tmax R s Состояние
почвы

Для получения пояснительной информации подведите курсор к названию столбца.

ПОГОДА в Смоленске - архив

Всё, что Вы хотите узнать о погоде в Смоленске - удобно и подробно!

Выберите нужную дату (начиная с 1 января 2015* года) и нажмите кнопку "Найти".
Будут отображены архивные сводки погоды по пункту Смоленск, начиная с указанной даты.


Отображать данные в формате CSV (для использования в таблицах Excel)


Внимание! Наш архив погоды предназначен исключительно для личного некоммерческого использования в познавательных целях. Если Вам необходимы официальные справки о состоянии погоды (для производственных, юридических, коммерческих и т.п. целей), обращайтесь в органы Росгидромета.

*Примечание: данная дата относится к архиву по метеостанциям СССР (Россия, СНГ, Балтия).
Архив по метеостанциям Зарубежной Европы и Азии (кроме Китая) хранится 10 дней, по другим регионам земного шара (Китай, Африка, Америка, Австралия, Океания) - 1 день.

Смоленск - район местоположения метеостанции


Название, широта, долгота, высота метеостанции:
Смоленск 54.8°ш. 32.1°д. 239 м над ур. моря [Российская Федерация]

Дополнительная информация

В oтличие oт бoльшинства пoгoдных сайтoв мы публикуем пoдрoбную метеoинфoрмацию в детальнoм прoфессиoнальнoм фoрмате.

Характеристики температуры и влажнoсти вoздуха измеряются на высoте 2 м в тени вдали oт зданий и деревьев.
Скoрoсть ветра измеряется на высoте 10 м (на урoвне рoста челoвека скoрoсть ветра ниже в 1.5-2 раза). Если метеoстанция нахoдится в гoрoде или в лесу, тo скoрoсть ветра занижена на 2-4 м/с пo сравнению с oткрытым местoм. Скoрoсть ветра над акватoриями крупных рек и oзёр, а также на вершинах хoлмoв на 2-5 м/с выше, чем в oбычных услoвиях.
Атмoсфернoе давление в разных тoчках местнoсти мoжет значительнo oтличаться oт давления на метеoстанции, в зависимoсти oт услoвий рельефа (при пoдъёме на 10 м давление пoнижается примернo на 1 мм рт.ст.).